Location: Unspecified
(0.0000°N, 0.0000°E)
Time: 23:03:32
(UTC+00:00)

S-56A Canister/Altair - All Passes

Search period start: 28 May 2022 00:00
Search period end: 07 June 2022 00:00
Orbit: 634 x 2499 km, 38.9° (Epoch: 28 May)

Date Brightness Start Highest point End Pass type
(mag) Time Alt. Az. Time Alt. Az. Time Alt. Az.
28 May - 02:03:10 10° WNW 02:13:35 62° SW 02:20:23 10° SE night (unlit)
28 May - 12:39:07 10° SSW 12:45:45 52° SE 12:55:46 10° ENE daylight
28 May - 14:42:59 10° WSW 14:51:02 41° NW 15:02:35 10° NNE daylight
28 May - 16:54:11 10° NW 16:59:34 14° NNW 17:05:34 10° N daylight
28 May - 21:22:05 10° N 21:25:15 11° NNE 21:28:17 10° NNE visible
28 May - 23:23:23 10° NNW 23:34:40 33° NNE 23:42:59 10° E visible
29 May - 01:29:22 10° NW 01:40:44 75° SW 01:48:06 10° SE night (unlit)
29 May - 03:42:00 10° WSW 03:44:35 12° SW 03:46:54 10° SSW night (unlit)
29 May - 12:07:00 10° SSW 12:13:02 41° SE 12:21:52 10° ENE daylight
29 May - 14:10:14 10° WSW 14:17:51 46° NW 14:29:05 10° NNE daylight
29 May - 16:20:07 10° NW 16:25:52 15° NNW 16:32:27 10° N daylight
29 May - 22:49:57 10° NNW 23:01:13 30° NNE 23:09:52 10° E visible
30 May - 00:55:36 10° NW 01:07:48 87° SW 01:15:43 10° SE visible
30 May - 03:06:35 10° W 03:11:51 17° SW 03:16:08 10° S night (unlit)
30 May - 11:35:00 10° SSW 11:40:24 32° SE 11:47:56 10° ENE daylight
30 May - 13:37:35 10° WSW 13:44:45 52° NW 13:55:36 10° NE daylight
30 May - 15:46:21 10° WNW 15:52:15 16° NNW 15:59:16 10° N daylight
30 May - 22:16:35 10° NNW 22:27:42 27° NNE 22:36:34 10° E visible
31 May - 00:21:51 10° NW 00:34:45 82° NE 00:43:15 10° SE visible
31 May - 02:31:51 10° W 02:39:06 22° SW 02:44:37 10° S night (unlit)
31 May - 11:03:09 10° S 11:07:48 24° SE 11:13:55 10° E daylight
31 May - 13:05:01 10° WSW 13:11:46 60° NW 13:22:06 10° NE daylight
31 May - 15:12:49 10° WNW 15:18:46 17° NNW 15:26:02 10° N daylight
31 May - 21:43:16 10° NNW 21:54:05 24° NNE 22:03:05 10° E visible
31 May - 23:48:09 10° NW 00:01:35 72° NE 00:10:39 10° ESE visible
01 Jun - 01:57:23 10° WNW 02:06:18 29° SW 02:12:48 10° SSE night (unlit)
01 Jun - 10:31:32 10° S 10:35:13 18° SE 10:39:43 10° E daylight
01 Jun - 12:32:33 10° WSW 12:38:53 70° NW 12:48:38 10° NE daylight
01 Jun - 14:39:28 10° WNW 14:45:22 19° NNW 14:52:48 10° NNE daylight
01 Jun - 21:10:02 10° NNW 21:20:23 22° NNE 21:29:21 10° ENE visible
01 Jun - 23:14:30 10° NW 23:28:19 64° NE 23:37:57 10° ESE visible
02 Jun - 01:23:02 10° WNW 01:33:27 36° SW 01:40:48 10° SSE night (unlit)
02 Jun - 10:00:25 10° SSE 10:02:38 12° SE 10:05:05 10° ESE daylight
02 Jun - 12:00:10 10° SW 12:06:05 83° NW 12:15:10 10° NE daylight
02 Jun - 14:06:18 10° WNW 14:12:05 20° NNW 14:19:33 10° NNE daylight
02 Jun - 20:36:56 10° NNW 20:46:37 20° NNE 20:55:22 10° ENE visible
02 Jun - 22:40:54 10° NW 22:54:56 57° NE 23:05:09 10° ESE visible
03 Jun - 00:48:49 10° WNW 01:00:32 45° SW 01:08:38 10° SSE visible
03 Jun - 11:27:51 10° SW 11:33:24 82° SE 11:41:44 10° NE daylight
03 Jun - 13:33:16 10° WNW 13:38:53 22° NNW 13:46:20 10° NNE daylight
03 Jun - 20:03:57 10° N 20:12:47 18° NNE 20:21:04 10° ENE visible
03 Jun - 22:07:23 10° NNW 22:21:29 51° NE 22:32:11 10° ESE visible
04 Jun - 00:14:42 10° WNW 00:27:30 54° SW 00:36:23 10° SSE visible
04 Jun - 10:55:36 10° SW 11:00:48 65° SE 11:08:18 10° NE daylight
04 Jun - 13:00:22 10° W 13:05:48 24° NNW 13:13:09 10° NNE daylight
04 Jun - 19:31:12 10° N 19:38:54 15° NNE 19:46:22 10° ENE visible
04 Jun - 21:33:57 10° NNW 21:47:56 46° NE 21:59:04 10° ESE visible
04 Jun - 23:40:40 10° WNW 23:54:22 63° SW 00:04:00 10° SE visible
05 Jun - 01:54:47 10° WSW 01:59:18 13° SW 02:03:12 10° SSW night (unlit)
05 Jun - 10:23:25 10° SSW 10:28:15 49° SE 10:34:54 10° ENE daylight
05 Jun - 12:27:34 10° W 12:32:49 27° NNW 12:40:01 10° NNE daylight
05 Jun - 18:58:45 10° N 19:04:59 13° NNE 19:11:11 10° NE visible
05 Jun - 21:00:36 10° NNW 21:14:19 41° NE 21:25:48 10° ESE visible
05 Jun - 23:06:44 10° NW 23:21:09 73° SW 23:31:29 10° SE visible
06 Jun - 01:19:10 10° W 01:26:16 18° SW 01:32:04 10° S night (unlit)
06 Jun - 09:51:20 10° SSW 09:55:45 36° SE 10:01:30 10° ENE daylight
06 Jun - 11:54:50 10° W 11:59:55 30° NNW 12:06:55 10° NNE daylight
06 Jun - 18:26:58 10° N 18:31:02 11° NNE 18:35:09 10° NE visible
06 Jun - 20:27:21 10° NNW 20:40:39 36° NE 20:52:20 10° E visible
06 Jun - 22:32:55 10° NW 22:47:50 83° SW 22:58:51 10° SE visible
